Погода в Усугли

Погода в Усугли : погода сейчас, прогноз погоды и архив. Всё, что Вы хотите узнать о погоде в Усугли!

Хотите узнать прогноз погоды в Усугли? Тогда Вам сюда: Погода в Усугли

Поиск расширенной информации на нашем сайте:

Другие новости

Новости СМИ2

Главная страница сайта

Новости сайта

03.07.2017

Напоминаем, что на нашем специализированном сайте Метеоцентр.Азия вы можете получить высокодетализированные автоматические прогнозы погоды по пунктам России, СНГ и мира в авиационном формате (включающие направление и скорость ветра, видимость, явления погоды, количество и форму облачности, нижнюю и верхнюю границу облачности).


Погода в Усугли - сегодня

Время (UTC), дата Ветер
(°,м/с) 
Видим.   Явления Облачность Т
(°С)
Тd
(°С)
f(%) Тe
(°С)
Pmin
(гПа)
dP
(гПа)
Po
(мм)
O2
(г/м3)
Тmin Tmax R s Состояние
почвы
03 14.08.18 330 (СЗ) 20000 м    1/0 верхняя 
[Ci ing]
+24.1 +13.6 52 +32  1010.9  -0.5  705  258           
06 14.08.18 340 (С) 20000 м    3/0 средняя 
[Ac lent]
+28.3 +11 34 +32  1008.9  -1  704  255           
09 14.08.18 300 (СЗ) 20000 м    3/3 1000 м верхняя 
[Cu hum|Ci ing]
+30.2 +8.5 26 +31  1008.3  -0.2  704  254           
15 14.08.18 120 (ЮВ) н/о    ясно 
+12.4 +11.4 94 +18  1016  706  270           
18 14.08.18 тихо ()   н/о    ясно 
+10 +9.2 95 +11  1017.9  1.1  707  273           
21 14.08.18 320 (СЗ) 0200 м  туман  ясно 
+8.5 +7.8 95 +10  1019.3  0.8  707  275           
00 15.08.18 тихо ()   0600 м  туман  1/0 верхняя 
[Ci fib]
+12.1 +11.5 96 +17  1019.1  0.8  708  271  +8.3        сухая 
03 15.08.18 070 (В) 20000 м  {туман}  4/0 средняя, верхняя 
[Ac lent|Ci ing]
+23.3 +15.9 63 +35  1014.9  -1.1  707  259           
06 15.08.18 160 (Ю) 20000 м    9/1 1000 м средняя, верхняя 
[Cu hum|Ac trans|Ci ing]
+27 +13.7 44 +35  1012.9  -1.1  707  256           
09 15.08.18 170 (Ю) 20000 м    10/0 средняя, верхняя 
[Ac trans|Ci ing]
+25.3 +14.7 52 +35  1012.4  -0.8  706  257           
15 15.08.18 320 (СЗ) н/о    4/0 средняя, верхняя 
[Ac lent|Ci fib]
+15.1 +14.1 94 +25  1014.3  -0.4  705  266           
18 15.08.18 330 (СЗ) н/о    н/о 
+13.8 +12.9 94 +21  1013.3  -1.2  704  268           
21 15.08.18 тихо ()   20000 м    10/3 600 м кучево-дожд., средняя 
[Cb cap|Ac As]
+14.3 +13.4 94 +22  1012.1  -1  704  267           
00 16.08.18 280 (З) 20000 м    10/3 600 м кучево-дожд., средняя 
[Cb cap|Ac As]
+17.9 +16.2 90 +32  1010.9  0.1  704  262  +13        сухая 
03 16.08.18 290 (З) 20000 м    10/5 600 м кучево-дожд., верхняя 
[Cb cap|Cs]
+18.6 +14.6 78 +30  1009.5  -1.2  703  262           
06 16.08.18 250 (З) 20000 м  слаб. дождь  10/0 средняя 
[As op]
+16.1 +14.2 88 +26  1009.2  -0.9  702  264           
09 16.08.18 160 (Ю) 20000 м  слаб. дождь  10/0 средняя 
[As op]
+15.8 +13.9 88 +26  1008  -1.2  701  264           
12 16.08.18 170 (Ю) н/о    н/о 
+15.5 +14.2 92 +26  1008.5  0.4  701  264    +18.9     
15 16.08.18 тихо ()   н/о    1/0 верхняя 
[Ci fib]
+11.6 +10.9 95 +15  1009.6  0.1  701  269           
18 16.08.18 310 (СЗ) н/о    4/0 верхняя 
[Ci ing]
+10.3 +9.7 96 +13  1009.3  -0.6  701  270           
21 16.08.18 290 (З) н/о    н/о 
+7.1 +6.5 96 +7  1010.6  0.2  701  274           
06 17.08.18 260 (З) 4{10}  20000 м    5/4 600 м кучево-дожд., верхняя 
[Cb cap|Ci ing]
+19.9 +8.1 46 +21  1004.2  -1.5  699  261           
09 17.08.18 220 (ЮЗ) 20000 м    10/6 600 м кучево-дожд., средняя, верхняя 
[Cb cap|Ac trans|Ci ing]
+17.5 +10.7 64 +22  1004.4  -0.3  699  263           
18 17.08.18 310 (СЗ) н/о  {ливн. осадки}  4/0 верхняя 
[Ci ing]
+10.6 +9.1 90 +13  1003.8  -1.6  697  269           
21 17.08.18 тихо ()   20000 м    5/0 верхняя 
[Ci ing]
+9.8 +8.4 91 +10  1003.9  -0.2  697  270           
Время (UTC), дата Ветер
(°,м/с) 
Видим.   Явления Облачность Т
(°С)
Тd
(°С)
f(%) Тe
(°С)
Pmin
(гПа)
dP
(гПа)
Po
(мм)
O2
(г/м3)
Тmin Tmax R s Состояние
почвы

Для получения пояснительной информации подведите курсор к названию столбца.

ПОГОДА в Усугли - архив

Всё, что Вы хотите узнать о погоде в Усугли - удобно и подробно!

Выберите нужную дату (начиная с 1 января 2015* года) и нажмите кнопку "Найти".
Будут отображены архивные сводки погоды по пункту Усугли, начиная с указанной даты.


Отображать данные в формате CSV (для использования в таблицах Excel)


Внимание! Наш архив погоды предназначен исключительно для личного некоммерческого использования в познавательных целях. Если Вам необходимы официальные справки о состоянии погоды (для производственных, юридических, коммерческих и т.п. целей), обращайтесь в органы Росгидромета.

*Примечание: данная дата относится к архиву по метеостанциям СССР (Россия, СНГ, Балтия).
Архив по метеостанциям Зарубежной Европы и Азии (кроме Китая) хранится 10 дней, по другим регионам земного шара (Китай, Африка, Америка, Австралия, Океания) - 1 день.

Усугли - район местоположения метеостанции


Название, широта, долгота, высота метеостанции:
Усугли 52.6°ш. 115.2°д. 646 м над ур. моря [Российская Федерация]

Дополнительная информация

В oтличие oт бoльшинства пoгoдных сайтoв мы публикуем пoдрoбную метеoинфoрмацию в детальнoм прoфессиoнальнoм фoрмате.

Характеристики температуры и влажнoсти вoздуха измеряются на высoте 2 м в тени вдали oт зданий и деревьев.
Скoрoсть ветра измеряется на высoте 10 м (на урoвне рoста челoвека скoрoсть ветра ниже в 1.5-2 раза). Если метеoстанция нахoдится в гoрoде или в лесу, тo скoрoсть ветра занижена на 2-4 м/с пo сравнению с oткрытым местoм. Скoрoсть ветра над акватoриями крупных рек и oзёр, а также на вершинах хoлмoв на 2-5 м/с выше, чем в oбычных услoвиях.
Атмoсфернoе давление в разных тoчках местнoсти мoжет значительнo oтличаться oт давления на метеoстанции, в зависимoсти oт услoвий рельефа (при пoдъёме на 10 м давление пoнижается примернo на 1 мм рт.ст.).